Perryton, TX

4:09 AM CDT on June 27, 2017 (GMT -0500)
Perryton Ochiltree County

Weather History for KPYX - October, 2011

Change the Weather History Date:

Saturday, October 29, 2011

  Actual Average Record
Temperature  
Mean Temperature 50 °F -  
Max Temperature 69 °F 65 °F 94 °F (2016)
Min Temperature 32 °F 37 °F 14 °F (1980)
Degree Days  
Heating Degree Days 14    
Moisture  
Dew Point 32 °F    
Average Humidity 55    
Maximum Humidity 87    
Minimum Humidity 28    
Precipitation  
Precipitation 0.00 in - - ()
Sea Level Pressure  
Sea Level Pressure 30.07 in    
Wind  
Wind Speed 14 mph (SSW)    
Max Wind Speed 26 mph    
Max Gust Speed 33 mph    
Visibility 10 miles    
Events      
Averages and records for this station are not official NWS values.
T = Trace of Precipitation, MM = Missing Value Source: NWS Daily Summary

Daily Weather History Graph

Daily Weather History Graph

Search for Another Location

Airport or City:

Trip Planner

Search our weather history database for the weather conditions in past years. The results will help you decide how hot, cold, wet, or windy it might be!

Date:

Astronomy

Oct. 29, 2011 Rise Set
Actual Time 8:03 AM CDT 6:49 PM CDT
Civil Twilight 7:36 AM CDT 7:16 PM CDT
Nautical Twilight 7:06 AM CDT 7:46 PM CDT
Astronomical Twilight 6:36 AM CDT 8:16 PM CDT
Moon 11:21 AM CDT (10/29) 9:20 PM CDT (10/29)
Length of Visible Light 11h 39m
Length of Day
10h 46m
Waxing Crescent, 12% of the Moon is Illuminated
Oct 29
Waxing Crescent
Nov 2
First Quarter
Nov 10
Full
Nov 18
Last Quarter
Nov 25
New

Hourly Weather History & Observations

Time (CDT) Temp. Windchill Dew Point Humidity Pressure Visibility Wind Dir Wind Speed Gust Speed Precip Events Conditions
12:15 AM 32.0 °F 24.2 °F 15.8 °F 51% 30.24 in 10.0 mi SW 9.2 mph - N/A   Clear
12:35 AM 35.6 °F 28.6 °F 17.6 °F 48% 30.23 in 10.0 mi SW 9.2 mph - N/A   Clear
12:55 AM 35.6 °F 29.9 °F 17.6 °F 48% 30.22 in 10.0 mi SW 6.9 mph - N/A   Clear
1:15 AM 35.6 °F 28.6 °F 19.4 °F 52% 30.22 in 10.0 mi SW 9.2 mph - N/A   Clear
2:15 AM 35.6 °F 28.6 °F 24.8 °F 65% 30.22 in 10.0 mi SW 9.2 mph - N/A   Clear
2:35 AM 35.6 °F 28.0 °F 26.6 °F 70% 30.22 in 10.0 mi SW 10.4 mph - N/A   Clear
2:55 AM 35.6 °F 28.0 °F 26.6 °F 70% 30.21 in 10.0 mi SW 10.4 mph - N/A   Clear
3:35 AM 33.8 °F 25.8 °F 26.6 °F 75% 30.19 in 10.0 mi SW 10.4 mph - N/A   Clear
3:55 AM 33.8 °F 25.3 °F 28.4 °F 81% 30.19 in 10.0 mi SW 11.5 mph - N/A   Clear
4:15 AM 35.6 °F 28.0 °F 28.4 °F 75% 30.18 in 10.0 mi SW 10.4 mph - N/A   Clear
4:35 AM 35.6 °F 28.0 °F 28.4 °F 75% 30.17 in 10.0 mi SW 10.4 mph - N/A   Clear
4:55 AM 35.6 °F 28.0 °F 28.4 °F 75% 30.17 in 10.0 mi SW 10.4 mph - N/A   Clear
5:15 AM 35.6 °F 27.1 °F 28.4 °F 75% 30.17 in 10.0 mi SW 12.7 mph - N/A   Clear
5:35 AM 35.6 °F 27.5 °F 28.4 °F 75% 30.17 in 10.0 mi SW 11.5 mph - N/A   Clear
5:55 AM 35.6 °F 27.5 °F 28.4 °F 75% 30.16 in 10.0 mi SW 11.5 mph - N/A   Clear
6:15 AM 35.6 °F 27.1 °F 28.4 °F 75% 30.15 in 10.0 mi SW 12.7 mph - N/A   Clear
6:35 AM 35.6 °F 27.1 °F 30.2 °F 81% 30.15 in 10.0 mi SSW 12.7 mph - N/A   Clear
6:55 AM 35.6 °F 27.5 °F 30.2 °F 81% 30.14 in 10.0 mi SSW 11.5 mph - N/A   Clear
7:15 AM 35.6 °F 27.5 °F 30.2 °F 81% 30.14 in 10.0 mi SSW 11.5 mph - N/A   Clear
7:35 AM 35.6 °F 28.0 °F 32.0 °F 87% 30.12 in 10.0 mi SSW 10.4 mph - N/A   Clear
7:55 AM 35.6 °F 28.0 °F 32.0 °F 87% 30.12 in 10.0 mi SSW 10.4 mph - N/A   Clear
8:15 AM 35.6 °F 28.0 °F 32.0 °F 87% 30.12 in 10.0 mi SSW 10.4 mph - N/A   Clear
8:35 AM 35.6 °F 28.6 °F 32.0 °F 87% 30.13 in 10.0 mi SSW 9.2 mph - N/A   Clear
8:55 AM 37.4 °F 30.3 °F 33.8 °F 87% 30.13 in 10.0 mi SSW 10.4 mph - N/A   Clear
9:15 AM 41.0 °F 34.3 °F 33.8 °F 76% 30.13 in 10.0 mi SSW 11.5 mph - N/A   Clear
9:35 AM 44.6 °F 36.9 °F 35.6 °F 71% 30.13 in 10.0 mi SSW 18.4 mph - N/A   Clear
9:55 AM 46.4 °F 39.5 °F 35.6 °F 66% 30.12 in 10.0 mi SSW 17.3 mph - N/A   Clear
10:15 AM 50.0 °F - 37.4 °F 62% 30.11 in 10.0 mi SSW 18.4 mph - N/A   Clear
10:35 AM 53.6 °F - 35.6 °F 51% 30.10 in 10.0 mi SSW 23.0 mph 27.6 mph N/A   Clear
10:55 AM 53.6 °F - 35.6 °F 51% 30.10 in 10.0 mi SSW 21.9 mph - N/A   Clear
11:15 AM 55.4 °F - 35.6 °F 47% 30.09 in 10.0 mi SSW 21.9 mph - N/A   Clear
11:35 AM 59.0 °F - 35.6 °F 42% 30.09 in 10.0 mi SSW 23.0 mph 28.8 mph N/A   Clear
11:55 AM 59.0 °F - 35.6 °F 42% 30.08 in 10.0 mi SSW 24.2 mph 31.1 mph N/A   Clear
12:15 PM 60.8 °F - 35.6 °F 39% 30.06 in 10.0 mi SSW 23.0 mph - N/A   Clear
12:35 PM 62.6 °F - 35.6 °F 37% 30.05 in 10.0 mi SSW 25.3 mph 28.8 mph N/A   Clear
12:55 PM 64.4 °F - 35.6 °F 34% 30.03 in 10.0 mi SSW 23.0 mph - N/A   Clear
1:15 PM 64.4 °F - 35.6 °F 34% 30.01 in 10.0 mi SSW 21.9 mph 29.9 mph N/A   Clear
1:35 PM 66.2 °F - 35.6 °F 32% 29.99 in 10.0 mi SSW 24.2 mph 29.9 mph N/A   Clear
1:55 PM 68.0 °F - 35.6 °F 30% 29.98 in 10.0 mi SSW 25.3 mph 32.2 mph N/A   Clear
2:15 PM 68.0 °F - 35.6 °F 30% 29.96 in 10.0 mi SSW 26.5 mph 33.4 mph N/A   Clear
2:35 PM 68.0 °F - 35.6 °F 30% 29.94 in 10.0 mi South 23.0 mph 29.9 mph N/A   Clear
2:55 PM 69.8 °F - 35.6 °F 28% 29.94 in 10.0 mi SSW 23.0 mph 33.4 mph N/A   Clear
3:35 PM 69.8 °F - 35.6 °F 28% 29.93 in 10.0 mi SW 19.6 mph 31.1 mph N/A   Clear
3:55 PM 69.8 °F - 37.4 °F 31% 29.92 in 10.0 mi SW 23.0 mph 27.6 mph N/A   Clear
4:15 PM 68.0 °F - 37.4 °F 33% 29.90 in 10.0 mi SSW 24.2 mph 28.8 mph N/A   Clear
4:35 PM 68.0 °F - 37.4 °F 33% 29.90 in 10.0 mi South 21.9 mph 26.5 mph N/A   Clear
4:55 PM 68.0 °F - 37.4 °F 33% 29.90 in 10.0 mi SSW 21.9 mph 27.6 mph N/A   Clear
5:15 PM 68.0 °F - 37.4 °F 33% 29.89 in 10.0 mi SSW 21.9 mph - N/A   Clear
5:35 PM 68.0 °F - 37.4 °F 33% 29.89 in 10.0 mi SSW 24.2 mph 27.6 mph N/A   Clear
5:55 PM 68.0 °F - 39.2 °F 35% 29.88 in 10.0 mi South 23.0 mph 27.6 mph N/A   Clear
6:15 PM 66.2 °F - 39.2 °F 37% 29.87 in 10.0 mi South 18.4 mph - N/A   Clear
6:35 PM 64.4 °F - 39.2 °F 40% 29.88 in 10.0 mi South 16.1 mph - N/A   Clear
6:55 PM 62.6 °F - 39.2 °F 42% 29.89 in 10.0 mi South 10.4 mph - N/A   Clear
7:15 PM 60.8 °F - 41.0 °F 48% 29.89 in 10.0 mi South 12.7 mph - N/A   Clear
7:35 PM 59.0 °F - 39.2 °F 48% 29.90 in 10.0 mi South 10.4 mph - N/A   Clear
7:55 PM 57.2 °F - 41.0 °F 55% 29.90 in 10.0 mi South 10.4 mph - N/A   Clear
8:15 PM 55.4 °F - 41.0 °F 58% 29.91 in 10.0 mi South 12.7 mph - N/A   Clear
8:35 PM 55.4 °F - 41.0 °F 58% 29.91 in 10.0 mi South 12.7 mph - N/A   Clear
8:55 PM 55.4 °F - 41.0 °F 58% 29.91 in 10.0 mi South 11.5 mph - N/A   Clear
9:15 PM 55.4 °F - 41.0 °F 58% 29.91 in 10.0 mi South 12.7 mph - N/A   Clear
9:35 PM 53.6 °F - 41.0 °F 62% 29.92 in 10.0 mi South 11.5 mph - N/A   Clear
9:55 PM 53.6 °F - 41.0 °F 62% 29.93 in 10.0 mi South 10.4 mph - N/A   Clear
10:15 PM 53.6 °F - 41.0 °F 62% 29.93 in 10.0 mi South 9.2 mph - N/A   Clear
10:35 PM 53.6 °F - 41.0 °F 62% 29.94 in 10.0 mi South 9.2 mph - N/A   Clear
10:55 PM 51.8 °F - 41.0 °F 67% 29.93 in 10.0 mi South 10.4 mph - N/A   Clear
11:15 PM 50.0 °F - 39.2 °F 66% 29.94 in 10.0 mi South 8.1 mph - N/A   Clear
11:35 PM 48.2 °F - 37.4 °F 66% 29.94 in 10.0 mi South 6.9 mph - N/A   Clear
11:55 PM 46.4 °F 43.5 °F 37.4 °F 71% 29.94 in 10.0 mi South 5.8 mph - N/A   Clear